StationID,Date,MaxTemp,MinTemp,Precipitation,Snowfall,SnowDepth
"USC00506783","1968-04-01",39.92,37.94,368.00,0.00,0.00
"USC00506783","1968-04-02",39.92,35.06,150.00,0.00,0.00
"USC00506783","1968-04-03",42.98,33.98,132.00,0.00,0.00
"USC00506783","1968-04-04",42.08,30.02,0.00,0.00,0.00
"USC00506783","1968-04-05",42.98,33.08,0.00,0.00,0.00
"USC00506783","1968-04-06",42.08,33.98,66.00,76.00,0.00
"USC00506783","1968-04-07",42.98,33.08,0.00,0.00,0.00
"USC00506783","1968-04-08",37.04,15.98,,13.00,0.00
"USC00506783","1968-04-09",24.98,12.92,0.00,0.00,0.00
"USC00506783","1968-04-10",35.96,21.02,0.00,0.00,0.00
"USC00506783","1968-04-11",39.02,35.06,191.00,0.00,0.00
"USC00506783","1968-04-12",39.92,33.08,0.00,0.00,0.00
"USC00506783","1968-04-13",42.08,32.00,64.00,0.00,0.00
"USC00506783","1968-04-14",35.96,30.02,0.00,0.00,0.00
"USC00506783","1968-04-15",39.92,33.98,25.00,0.00,0.00
"USC00506783","1968-04-16",37.94,33.98,0.00,0.00,0.00
"USC00506783","1968-04-17",35.96,33.08,28.00,0.00,0.00
"USC00506783","1968-04-18",42.98,30.92,0.00,0.00,0.00
"USC00506783","1968-04-19",44.06,30.02,0.00,0.00,0.00
"USC00506783","1968-04-20",41.00,33.98,20.00,0.00,0.00
"USC00506783","1968-04-21",42.08,33.08,122.00,0.00,0.00
"USC00506783","1968-04-22",41.00,33.98,0.00,0.00,0.00
"USC00506783","1968-04-23",44.06,35.06,0.00,0.00,0.00
"USC00506783","1968-04-24",46.04,35.96,0.00,0.00,0.00
"USC00506783","1968-04-25",44.06,30.92,0.00,0.00,0.00
"USC00506783","1968-04-26",46.04,28.94,23.00,0.00,0.00
"USC00506783","1968-04-27",44.96,30.02,0.00,0.00,0.00
"USC00506783","1968-04-28",46.04,33.08,0.00,0.00,0.00
"USC00506783","1968-04-29",46.94,33.98,0.00,0.00,0.00
"USC00506783","1968-04-30",44.96,33.08,18.00,0.00,0.00
"USC00506783","1968-11-01",46.04,37.94,56.00,,
"USC00506783","1968-11-02",44.96,32.00,18.00,,
"USC00506783","1968-11-03",48.02,35.96,173.00,,
"USC00506783","1968-11-04",48.02,35.06,226.00,,
"USC00506783","1968-11-05",44.96,35.96,150.00,,
"USC00506783","1968-11-06",44.96,33.98,23.00,,
"USC00506783","1968-11-07",48.02,33.08,53.00,,
"USC00506783","1968-11-08",50.00,33.98,0.00,,
"USC00506783","1968-11-09",48.92,33.08,0.00,,
"USC00506783","1968-11-10",48.02,35.06,3.00,,
"USC00506783","1968-11-11",48.02,30.02,0.00,,
"USC00506783","1968-11-12",50.00,35.96,5.00,,
"USC00506783","1968-11-13",48.92,33.08,8.00,,
"USC00506783","1968-11-14",46.94,35.06,0.00,,
"USC00506783","1968-11-15",42.98,33.08,53.00,,
"USC00506783","1968-11-16",44.96,33.98,422.00,,
"USC00506783","1968-11-17",42.98,33.98,333.00,,
"USC00506783","1968-11-18",44.96,35.96,53.00,,
"USC00506783","1968-11-19",44.06,35.06,0.00,,
"USC00506783","1968-11-20",42.08,33.98,8.00,,
"USC00506783","1968-11-21",44.06,35.96,10.00,,
"USC00506783","1968-11-22",44.96,35.96,0.00,,
"USC00506783","1968-11-23",44.06,37.94,56.00,,
"USC00506783","1968-11-24",46.04,37.04,170.00,,
"USC00506783","1968-11-25",44.06,32.00,0.00,,
"USC00506783","1968-11-26",37.94,24.98,0.00,,
"USC00506783","1968-11-27",35.96,21.92,10.00,,
"USC00506783","1968-11-28",33.98,26.06,0.00,,
"USC00506783","1968-11-29",33.98,15.08,0.00,,
"USC00506783","1968-11-30",32.00,19.94,0.00,,
"USC00506783","1968-12-01",35.96,24.98,25.00,10.00,0.00
"USC00506783","1968-12-02",32.00,8.06,0.00,0.00,0.00
"USC00506783","1968-12-03",15.98,6.98,0.00,0.00,0.00
"USC00506783","1968-12-04",17.96,6.98,0.00,0.00,0.00
"USC00506783","1968-12-05",21.92,8.96,0.00,0.00,0.00
"USC00506783","1968-12-06",24.08,14.00,0.00,0.00,0.00
"USC00506783","1968-12-07",21.92,10.04,0.00,0.00,0.00
"USC00506783","1968-12-08",26.06,6.98,0.00,0.00,0.00
"USC00506783","1968-12-09",23.00,17.06,0.00,0.00,0.00
"USC00506783","1968-12-10",26.06,8.96,0.00,0.00,0.00
"USC00506783","1968-12-11",28.04,21.92,13.00,10.00,0.00
"USC00506783","1968-12-12",32.00,19.04,89.00,13.00,25.00
"USC00506783","1968-12-13",32.00,5.00,28.00,15.00,25.00
"USC00506783","1968-12-14",26.96,6.08,0.00,0.00,0.00
"USC00506783","1968-12-15",35.06,8.96,201.00,13.00,25.00
"USC00506783","1968-12-16",35.96,17.96,0.00,0.00,0.00
"USC00506783","1968-12-17",26.06,15.98,0.00,0.00,0.00
"USC00506783","1968-12-18",32.00,21.02,0.00,0.00,0.00
"USC00506783","1968-12-19",33.98,21.92,0.00,0.00,0.00
"USC00506783","1968-12-20",32.00,19.04,0.00,0.00,0.00
"USC00506783","1968-12-21",33.98,19.94,0.00,0.00,0.00
"USC00506783","1968-12-22",35.96,23.00,0.00,0.00,0.00
"USC00506783","1968-12-23",32.00,17.96,0.00,0.00,0.00
"USC00506783","1968-12-24",33.98,19.94,0.00,0.00,0.00
"USC00506783","1968-12-25",33.98,15.98,0.00,0.00,0.00
"USC00506783","1968-12-26",35.06,19.94,0.00,0.00,0.00
"USC00506783","1968-12-27",35.96,24.08,0.00,0.00,0.00
"USC00506783","1968-12-28",35.96,24.08,0.00,0.00,0.00
"USC00506783","1968-12-29",35.96,23.00,0.00,0.00,0.00
"USC00506783","1968-12-30",33.98,21.92,0.00,0.00,0.00
"USC00506783","1968-12-31",33.08,19.94,0.00,0.00,0.00
"USC00506783","1969-01-01",21.92,14.00,0.00,0.00,0.00
"USC00506783","1969-01-02",17.96,6.08,0.00,0.00,0.00
"USC00506783","1969-01-03",10.94,6.08,0.00,0.00,0.00
"USC00506783","1969-01-04",17.96,6.08,0.00,0.00,0.00
"USC00506783","1969-01-05",19.94,8.06,0.00,0.00,0.00
"USC00506783","1969-01-06",28.04,17.06,0.00,0.00,0.00
"USC00506783","1969-01-07",35.06,26.96,0.00,0.00,0.00
"USC00506783","1969-01-08",33.98,21.92,0.00,0.00,0.00
"USC00506783","1969-01-09",35.06,17.06,0.00,0.00,0.00
"USC00506783","1969-01-10",30.02,15.98,0.00,0.00,0.00
"USC00506783","1969-01-11",24.98,12.92,0.00,0.00,0.00
"USC00506783","1969-01-12",24.98,17.96,0.00,0.00,0.00
"USC00506783","1969-01-13",24.98,15.08,0.00,0.00,0.00
"USC00506783","1969-01-14",30.02,17.96,0.00,0.00,0.00
"USC00506783","1969-01-15",35.06,24.08,3.00,,
"USC00506783","1969-01-16",35.96,28.04,10.00,,
"USC00506783","1969-01-17",33.98,24.08,0.00,0.00,0.00
"USC00506783","1969-01-18",35.06,26.06,0.00,0.00,0.00
"USC00506783","1969-01-19",30.02,24.08,0.00,0.00,0.00
"USC00506783","1969-01-20",35.06,28.04,0.00,0.00,0.00
"USC00506783","1969-01-21",35.96,30.02,3.00,,
"USC00506783","1969-01-22",37.94,24.98,0.00,0.00,0.00
"USC00506783","1969-01-23",33.98,19.94,0.00,0.00,0.00
"USC00506783","1969-01-24",37.04,17.96,0.00,0.00,0.00
"USC00506783","1969-01-25",35.96,19.94,0.00,0.00,0.00
"USC00506783","1969-01-26",33.98,19.94,0.00,0.00,0.00
"USC00506783","1969-01-27",35.06,21.92,0.00,0.00,0.00
"USC00506783","1969-01-28",33.08,30.02,53.00,,
"USC00506783","1969-01-29",35.96,28.04,257.00,0.00,
"USC00506783","1969-01-30",35.96,26.06,51.00,,
"USC00506783","1969-01-31",35.06,28.04,0.00,0.00,
"USC00506783","1969-02-01",30.92,24.08,0.00,,0.00
"USC00506783","1969-02-02",30.02,19.94,0.00,,0.00
"USC00506783","1969-02-03",28.04,15.08,0.00,,0.00
"USC00506783","1969-02-04",28.04,8.96,0.00,,0.00
"USC00506783","1969-02-05",26.96,8.06,38.00,,25.00
"USC00506783","1969-02-06",28.04,21.92,140.00,,229.00
"USC00506783","1969-02-07",32.00,26.06,0.00,,
"USC00506783","1969-02-08",26.96,19.94,0.00,,
"USC00506783","1969-02-09",30.02,17.96,0.00,,0.00
"USC00506783","1969-02-10",30.02,24.08,0.00,,0.00
"USC00506783","1969-02-11",28.04,21.92,0.00,,0.00
"USC00506783","1969-02-12",33.08,19.04,102.00,,51.00
"USC00506783","1969-02-13",37.04,32.00,330.00,,0.00
"USC00506783","1969-02-14",33.98,32.00,51.00,,0.00
"USC00506783","1969-02-15",39.92,30.02,0.00,,0.00
"USC00506783","1969-02-16",33.98,32.00,10.00,,0.00
"USC00506783","1969-02-17",35.96,33.98,8.00,,0.00
"USC00506783","1969-02-18",35.96,33.08,13.00,,0.00
"USC00506783","1969-02-19",37.94,35.96,0.00,,0.00
"USC00506783","1969-02-20",37.94,33.98,0.00,,0.00
"USC00506783","1969-02-21",35.96,32.00,0.00,,0.00
"USC00506783","1969-02-22",37.94,33.98,0.00,,0.00
"USC00506783","1969-02-23",35.96,32.00,0.00,,0.00
"USC00506783","1969-02-24",37.94,33.98,0.00,,0.00
"USC00506783","1969-02-25",35.96,33.98,10.00,,0.00
"USC00506783","1969-02-26",37.94,33.98,0.00,,0.00
"USC00506783","1969-02-27",39.92,32.00,0.00,,0.00
"USC00506783","1969-02-28",35.96,33.98,15.00,,0.00
"USC00506783","1969-03-01",37.94,33.98,15.00,,
"USC00506783","1969-03-02",35.96,33.98,10.00,,
"USC00506783","1969-03-03",37.94,35.96,15.00,,
"USC00506783","1969-03-04",37.94,33.98,0.00,,
"USC00506783","1969-03-05",39.92,35.96,20.00,,
"USC00506783","1969-03-06",39.92,35.96,0.00,,
"USC00506783","1969-03-07",37.94,35.96,0.00,,
"USC00506783","1969-03-08",37.94,33.98,15.00,,
"USC00506783","1969-03-09",39.92,33.98,10.00,,
"USC00506783","1969-03-10",39.92,33.98,20.00,,
"USC00506783","1969-03-11",35.96,32.00,0.00,,
"USC00506783","1969-03-12",39.92,35.96,0.00,,
"USC00506783","1969-03-13",42.08,32.00,0.00,,
"USC00506783","1969-03-14",37.94,30.02,0.00,,
"USC00506783","1969-03-15",39.92,30.02,0.00,,
"USC00506783","1969-03-16",35.96,24.08,0.00,,
"USC00506783","1969-03-17",39.92,26.06,0.00,,
"USC00506783","1969-03-18",42.08,33.98,0.00,,
"USC00506783","1969-03-19",33.98,32.00,20.00,,
"USC00506783","1969-03-20",39.92,33.98,0.00,,
"USC00506783","1969-03-21",35.96,32.00,0.00,,
"USC00506783","1969-03-22",33.98,32.00,0.00,,
"USC00506783","1969-03-23",39.92,32.00,0.00,,
"USC00506783","1969-03-24",39.92,32.00,0.00,,
"USC00506783","1969-03-25",37.94,33.98,23.00,,
"USC00506783","1969-03-26",39.92,32.00,0.00,,
"USC00506783","1969-03-27",42.08,35.96,23.00,,
"USC00506783","1969-03-28",44.06,32.00,0.00,,
"USC00506783","1969-03-29",46.04,33.98,0.00,,
"USC00506783","1969-03-30",42.08,32.00,51.00,,
"USC00506783","1969-03-31",44.06,30.02,0.00,,
"USC00506783","1969-04-01",44.06,33.98,53.00,0.00,0.00
"USC00506783","1969-04-02",46.04,33.98,0.00,0.00,0.00
"USC00506783","1969-04-03",39.92,33.98,0.00,0.00,0.00
"USC00506783","1969-04-04",46.04,35.96,0.00,0.00,0.00
"USC00506783","1969-04-05",48.02,33.98,74.00,0.00,0.00
"USC00506783","1969-04-06",44.06,32.00,0.00,0.00,0.00
"USC00506783","1969-04-07",48.02,35.96,0.00,0.00,0.00
"USC00506783","1969-04-08",48.02,35.96,0.00,0.00,0.00
"USC00506783","1969-04-09",46.04,37.94,0.00,0.00,0.00
"USC00506783","1969-04-10",48.02,37.94,0.00,0.00,0.00
"USC00506783","1969-04-11",50.00,39.92,0.00,0.00,0.00
"USC00506783","1969-04-12",51.98,42.08,0.00,0.00,0.00
"USC00506783","1969-04-13",48.02,44.06,0.00,0.00,0.00
"USC00506783","1969-04-14",44.06,39.92,74.00,0.00,0.00
"USC00506783","1969-04-15",42.08,37.94,0.00,0.00,0.00
"USC00506783","1969-04-16",48.02,37.94,0.00,0.00,0.00
"USC00506783","1969-04-17",46.04,35.96,0.00,0.00,0.00
"USC00506783","1969-04-18",50.00,33.98,0.00,0.00,0.00
"USC00506783","1969-04-19",51.98,48.02,0.00,0.00,0.00
"USC00506783","1969-04-20",53.96,35.96,0.00,0.00,0.00
"USC00506783","1969-04-21",48.02,37.94,0.00,0.00,0.00
"USC00506783","1969-04-22",51.98,46.04,0.00,0.00,0.00
"USC00506783","1969-04-23",48.02,44.06,0.00,0.00,0.00
"USC00506783","1969-04-24",51.98,32.00,0.00,0.00,0.00
"USC00506783","1969-04-25",50.00,37.94,0.00,0.00,0.00
"USC00506783","1969-04-26",50.00,42.08,0.00,0.00,0.00
"USC00506783","1969-04-27",48.02,44.06,56.00,0.00,0.00
"USC00506783","1969-04-28",46.04,42.08,0.00,0.00,0.00
"USC00506783","1969-04-29",44.06,39.92,25.00,0.00,0.00
"USC00506783","1969-04-30",51.98,44.06,0.00,0.00,0.00
"USC00506783","1969-05-01",50.00,42.08,0.00,0.00,0.00
"USC00506783","1969-05-02",48.02,39.92,0.00,0.00,0.00
"USC00506783","1969-05-03",50.00,42.08,0.00,0.00,0.00
"USC00506783","1969-05-04",51.98,44.06,0.00,0.00,0.00
"USC00506783","1969-05-05",48.02,42.08,25.00,0.00,0.00
"USC00506783","1969-05-06",51.98,44.06,0.00,0.00,0.00
"USC00506783","1969-05-07",50.00,46.04,0.00,0.00,0.00
"USC00506783","1969-05-08",50.00,44.06,0.00,0.00,0.00
"USC00506783","1969-05-09",48.02,46.04,0.00,0.00,0.00
"USC00506783","1969-05-10",50.00,44.06,0.00,0.00,0.00
"USC00506783","1969-05-11",60.08,39.92,0.00,0.00,0.00
"USC00506783","1969-05-12",57.92,42.08,0.00,0.00,0.00
"USC00506783","1969-05-13",60.08,39.92,0.00,0.00,0.00
"USC00506783","1969-05-14",55.94,35.96,0.00,0.00,0.00
"USC00506783","1969-05-15",57.92,37.94,0.00,0.00,0.00
"USC00506783","1969-05-16",51.98,33.98,0.00,0.00,0.00
"USC00506783","1969-05-17",50.00,37.94,0.00,0.00,0.00
"USC00506783","1969-05-18",51.98,39.92,0.00,0.00,0.00
"USC00506783","1969-05-19",55.94,42.08,0.00,0.00,0.00
"USC00506783","1969-05-20",46.04,39.92,36.00,0.00,0.00
"USC00506783","1969-05-21",48.02,39.92,38.00,0.00,0.00
"USC00506783","1969-05-22",51.98,42.08,41.00,0.00,0.00
"USC00506783","1969-05-23",57.92,44.06,0.00,0.00,0.00
"USC00506783","1969-05-24",48.02,39.92,0.00,0.00,0.00
"USC00506783","1969-05-25",68.00,42.08,0.00,0.00,0.00
"USC00506783","1969-05-26",64.04,44.06,0.00,0.00,0.00
"USC00506783","1969-05-27",50.00,39.92,30.00,0.00,0.00
"USC00506783","1969-05-28",48.02,42.08,20.00,0.00,0.00
"USC00506783","1969-05-29",48.02,39.92,46.00,0.00,0.00
"USC00506783","1969-05-30",60.08,42.08,0.00,0.00,0.00
"USC00506783","1969-05-31",57.92,44.06,0.00,0.00,0.00
"USC00506783","1969-06-01",60.08,46.04,0.00,0.00,0.00
"USC00506783","1969-06-02",57.92,44.06,0.00,0.00,0.00
"USC00506783","1969-06-03",62.06,44.06,0.00,0.00,0.00
"USC00506783","1969-06-04",57.92,46.04,0.00,0.00,0.00
"USC00506783","1969-06-05",55.94,44.06,25.00,0.00,0.00
"USC00506783","1969-06-06",57.92,46.04,36.00,0.00,0.00
"USC00506783","1969-06-07",55.94,44.06,48.00,0.00,0.00
"USC00506783","1969-06-08",57.92,46.04,61.00,0.00,0.00
"USC00506783","1969-06-09",60.08,44.06,0.00,0.00,0.00
"USC00506783","1969-06-10",57.92,46.04,41.00,0.00,0.00
"USC00506783","1969-06-11",57.92,48.02,0.00,0.00,0.00
"USC00506783","1969-06-12",53.96,46.04,0.00,0.00,0.00
"USC00506783","1969-06-13",60.08,46.04,0.00,0.00,0.00
"USC00506783","1969-06-14",69.98,51.98,0.00,0.00,0.00
"USC00506783","1969-06-15",64.04,50.00,71.00,0.00,0.00
"USC00506783","1969-06-16",62.06,48.02,0.00,0.00,0.00
"USC00506783","1969-06-17",57.92,46.04,0.00,0.00,0.00
"USC00506783","1969-06-18",50.00,42.08,127.00,0.00,0.00
"USC00506783","1969-06-19",53.96,44.06,0.00,0.00,0.00
"USC00506783","1969-06-20",50.00,42.08,0.00,0.00,0.00
"USC00506783","1969-06-21",55.94,44.06,0.00,0.00,0.00
"USC00506783","1969-06-22",60.08,48.02,0.00,0.00,0.00
"USC00506783","1969-06-23",60.08,46.04,0.00,0.00,0.00
"USC00506783","1969-06-24",62.06,48.02,0.00,0.00,0.00
"USC00506783","1969-06-25",69.98,51.98,0.00,0.00,0.00
"USC00506783","1969-06-26",71.96,51.98,0.00,0.00,0.00
"USC00506783","1969-06-27",68.00,50.00,0.00,0.00,0.00
"USC00506783","1969-06-28",68.00,48.92,0.00,0.00,0.00
"USC00506783","1969-06-29",71.96,53.96,0.00,0.00,0.00
"USC00506783","1969-06-30",75.92,55.94,0.00,0.00,0.00
"USC00506783","1969-07-01",71.96,53.96,0.00,0.00,0.00
"USC00506783","1969-07-02",69.98,55.94,0.00,0.00,0.00
"USC00506783","1969-07-03",68.00,53.96,0.00,0.00,0.00
"USC00506783","1969-07-04",66.02,51.98,0.00,0.00,0.00
"USC00506783","1969-07-05",68.00,53.96,0.00,0.00,0.00
"USC00506783","1969-07-06",69.98,57.92,0.00,0.00,0.00
"USC00506783","1969-07-07",66.02,53.96,0.00,0.00,0.00
"USC00506783","1969-07-08",69.98,60.08,0.00,0.00,0.00
"USC00506783","1969-07-09",68.00,55.94,0.00,0.00,0.00
"USC00506783","1969-07-10",69.98,60.08,0.00,0.00,0.00
"USC00506783","1969-07-11",68.00,53.96,0.00,0.00,0.00
"USC00506783","1969-07-12",66.02,51.98,0.00,0.00,0.00
"USC00506783","1969-07-13",68.00,51.98,0.00,0.00,0.00
"USC00506783","1969-07-14",66.02,53.96,0.00,0.00,0.00
"USC00506783","1969-07-15",64.04,50.00,0.00,0.00,0.00
"USC00506783","1969-07-16",62.06,50.00,0.00,0.00,0.00
"USC00506783","1969-07-17",64.04,48.02,0.00,0.00,0.00
"USC00506783","1969-07-18",66.02,51.98,0.00,0.00,0.00
"USC00506783","1969-07-19",69.98,50.00,0.00,0.00,0.00
"USC00506783","1969-07-20",68.00,51.98,0.00,0.00,0.00
"USC00506783","1969-07-21",62.06,50.00,0.00,0.00,0.00
"USC00506783","1969-07-22",57.92,46.04,0.00,0.00,0.00
"USC00506783","1969-07-23",62.06,48.02,0.00,0.00,0.00
"USC00506783","1969-07-24",68.00,51.98,0.00,0.00,0.00
"USC00506783","1969-07-25",66.02,55.94,0.00,0.00,0.00
"USC00506783","1969-07-26",68.00,53.96,0.00,0.00,0.00
"USC00506783","1969-07-27",69.98,53.96,0.00,0.00,0.00
"USC00506783","1969-07-28",68.00,51.98,0.00,0.00,0.00
"USC00506783","1969-07-29",68.00,55.94,0.00,0.00,0.00
"USC00506783","1969-07-30",66.02,51.98,0.00,0.00,0.00
"USC00506783","1969-07-31",64.04,50.00,0.00,0.00,0.00
"USC00506783","1969-08-01",69.98,51.98,0.00,0.00,0.00
"USC00506783","1969-08-02",71.96,50.00,0.00,0.00,0.00
"USC00506783","1969-08-03",69.98,57.92,0.00,0.00,0.00
"USC00506783","1969-08-04",71.96,51.98,0.00,0.00,0.00
"USC00506783","1969-08-05",64.04,50.00,0.00,0.00,0.00
"USC00506783","1969-08-06",71.96,53.96,0.00,0.00,0.00
"USC00506783","1969-08-07",66.02,50.00,0.00,0.00,0.00
"USC00506783","1969-08-08",64.94,48.02,0.00,0.00,0.00
"USC00506783","1969-08-09",69.98,53.06,0.00,0.00,0.00
"USC00506783","1969-08-10",66.02,50.00,0.00,0.00,0.00
"USC00506783","1969-08-11",64.94,48.02,0.00,0.00,0.00
"USC00506783","1969-08-12",69.98,51.98,0.00,0.00,0.00
"USC00506783","1969-08-13",64.04,48.02,0.00,0.00,0.00
"USC00506783","1969-08-14",66.02,46.04,0.00,0.00,0.00
"USC00506783","1969-08-15",68.00,44.06,0.00,0.00,0.00
"USC00506783","1969-08-16",69.98,53.96,0.00,0.00,0.00
"USC00506783","1969-08-17",68.00,55.94,0.00,0.00,0.00
"USC00506783","1969-08-18",66.02,51.98,0.00,0.00,0.00
"USC00506783","1969-08-19",68.00,50.00,0.00,0.00,0.00
"USC00506783","1969-08-20",69.98,51.98,0.00,0.00,0.00
"USC00506783","1969-08-21",66.02,50.00,0.00,0.00,0.00
"USC00506783","1969-08-22",68.00,48.02,0.00,0.00,0.00
"USC00506783","1969-08-23",66.02,46.04,0.00,0.00,0.00
"USC00506783","1969-08-24",64.04,50.00,0.00,0.00,0.00
"USC00506783","1969-08-25",62.06,51.98,0.00,0.00,0.00
"USC00506783","1969-08-26",66.02,50.00,0.00,0.00,0.00
"USC00506783","1969-08-27",68.00,51.98,0.00,0.00,0.00
"USC00506783","1969-08-28",66.02,50.00,0.00,0.00,0.00
"USC00506783","1969-08-29",68.00,51.98,0.00,0.00,0.00
"USC00506783","1969-08-30",69.08,50.00,0.00,0.00,0.00
"USC00506783","1969-08-31",66.02,48.02,0.00,0.00,0.00
"USC00506783","1969-09-01",68.00,46.04,0.00,0.00,0.00
"USC00506783","1969-09-02",68.00,48.02,0.00,0.00,0.00
"USC00506783","1969-09-03",64.04,50.00,0.00,0.00,0.00
"USC00506783","1969-09-04",68.00,51.98,0.00,0.00,0.00
"USC00506783","1969-09-05",69.98,50.00,0.00,0.00,0.00
"USC00506783","1969-09-06",64.04,46.04,0.00,0.00,0.00
"USC00506783","1969-09-07",57.92,44.06,25.00,0.00,0.00
"USC00506783","1969-09-08",60.08,51.98,53.00,0.00,0.00
"USC00506783","1969-09-09",57.92,53.96,15.00,0.00,0.00
"USC00506783","1969-09-10",62.06,51.98,0.00,0.00,0.00
"USC00506783","1969-09-11",57.92,50.00,0.00,0.00,0.00
"USC00506783","1969-09-12",62.06,44.06,0.00,0.00,0.00
"USC00506783","1969-09-13",51.98,41.00,0.00,0.00,0.00
"USC00506783","1969-09-14",55.94,48.02,53.00,0.00,0.00
"USC00506783","1969-09-15",55.94,50.00,58.00,0.00,0.00
"USC00506783","1969-09-16",57.92,44.06,0.00,0.00,0.00
"USC00506783","1969-09-17",51.98,42.08,0.00,0.00,0.00
"USC00506783","1969-09-18",57.92,39.92,0.00,0.00,0.00
"USC00506783","1969-09-19",51.98,42.08,0.00,0.00,0.00
"USC00506783","1969-09-20",53.96,48.02,25.00,0.00,0.00
"USC00506783","1969-09-21",53.96,50.00,61.00,0.00,0.00
"USC00506783","1969-09-22",55.94,50.00,0.00,0.00,0.00
"USC00506783","1969-09-23",55.94,46.04,0.00,0.00,0.00
"USC00506783","1969-09-24",57.92,42.08,0.00,0.00,0.00
"USC00506783","1969-09-25",60.08,39.92,0.00,0.00,0.00
"USC00506783","1969-09-26",53.96,39.92,25.00,0.00,0.00
"USC00506783","1969-09-27",51.98,42.08,46.00,0.00,0.00
"USC00506783","1969-09-28",51.98,44.06,61.00,0.00,0.00
"USC00506783","1969-09-29",53.96,42.08,0.00,0.00,0.00
"USC00506783","1969-09-30",53.06,39.92,0.00,0.00,0.00
"USC00506783","1969-10-01",51.98,42.08,0.00,0.00,0.00
"USC00506783","1969-10-02",51.98,39.92,0.00,0.00,0.00
"USC00506783","1969-10-03",53.96,46.04,0.00,0.00,0.00
"USC00506783","1969-10-04",53.96,48.02,0.00,0.00,0.00
"USC00506783","1969-10-05",50.00,42.08,330.00,0.00,0.00
"USC00506783","1969-10-06",50.00,39.92,0.00,0.00,0.00
"USC00506783","1969-10-07",51.98,42.08,0.00,0.00,0.00
"USC00506783","1969-10-08",57.92,42.08,0.00,0.00,0.00
"USC00506783","1969-10-09",55.94,37.94,23.00,0.00,0.00
"USC00506783","1969-10-10",50.00,35.96,312.00,0.00,0.00
"USC00506783","1969-10-11",48.02,37.94,20.00,0.00,0.00
"USC00506783","1969-10-12",48.92,37.94,330.00,0.00,0.00
"USC00506783","1969-10-13",48.02,37.94,58.00,0.00,0.00
"USC00506783","1969-10-14",48.02,37.94,0.00,0.00,0.00
"USC00506783","1969-10-15",50.00,35.96,0.00,0.00,0.00
"USC00506783","1969-10-16",48.02,35.96,0.00,0.00,0.00
"USC00506783","1969-10-17",48.02,33.98,328.00,0.00,0.00
"USC00506783","1969-10-18",46.04,35.96,302.00,0.00,0.00
"USC00506783","1969-10-19",46.04,33.98,0.00,0.00,0.00
"USC00506783","1969-10-20",50.00,33.98,0.00,0.00,0.00
"USC00506783","1969-10-21",51.98,30.02,0.00,0.00,0.00
"USC00506783","1969-10-22",53.96,30.02,0.00,0.00,0.00
"USC00506783","1969-10-23",51.98,30.02,0.00,0.00,0.00
"USC00506783","1969-10-24",48.02,28.04,0.00,0.00,0.00
"USC00506783","1969-10-25",46.04,26.06,0.00,0.00,0.00
"USC00506783","1969-10-26",46.04,28.04,0.00,0.00,0.00
"USC00506783","1969-10-27",46.04,30.02,0.00,0.00,0.00
"USC00506783","1969-10-28",46.04,32.00,25.00,0.00,0.00
"USC00506783","1969-10-29",44.06,30.02,15.00,0.00,0.00
"USC00506783","1969-10-30",48.02,37.94,0.00,0.00,0.00
"USC00506783","1969-10-31",46.04,33.98,0.00,0.00,0.00
"USC00506783","1969-11-01",50.00,33.98,0.00,,
"USC00506783","1969-11-02",46.04,32.00,0.00,,
"USC00506783","1969-11-03",44.06,32.00,0.00,,
"USC00506783","1969-11-04",46.04,30.02,0.00,,
"USC00506783","1969-11-05",44.06,32.00,0.00,,
"USC00506783","1969-11-06",39.92,26.06,0.00,,
"USC00506783","1969-11-07",33.98,28.04,0.00,,
"USC00506783","1969-11-08",39.92,28.04,0.00,,
"USC00506783","1969-11-09",35.96,28.04,0.00,,
"USC00506783","1969-11-10",33.98,26.06,0.00,,
"USC00506783","1969-11-11",33.98,21.92,0.00,,
"USC00506783","1969-11-12",33.98,24.08,0.00,,
"USC00506783","1969-11-13",35.96,28.04,0.00,,
"USC00506783","1969-11-14",30.02,24.08,0.00,,
"USC00506783","1969-11-15",33.98,28.04,0.00,,
"USC00506783","1969-11-16",35.96,28.04,0.00,,
"USC00506783","1969-11-17",39.92,28.04,0.00,,
"USC00506783","1969-11-18",42.08,32.00,25.00,,
"USC00506783","1969-11-19",44.06,33.98,0.00,,
"USC00506783","1969-11-20",42.08,33.98,0.00,,
"USC00506783","1969-11-21",44.06,35.96,0.00,,
"USC00506783","1969-11-22",42.08,32.00,0.00,,
"USC00506783","1969-11-23",44.06,33.98,0.00,,
"USC00506783","1969-11-24",44.06,32.00,0.00,,
"USC00506783","1969-11-25",46.04,33.98,53.00,,
"USC00506783","1969-11-26",46.04,35.96,61.00,,
"USC00506783","1969-11-27",44.06,33.98,79.00,,
"USC00506783","1969-11-28",46.04,35.96,0.00,,
"USC00506783","1969-11-29",44.06,33.98,0.00,,
"USC00506783","1969-11-30",39.92,30.02,0.00,,
"USC00506783","1969-12-01",44.06,33.98,46.00,,
"USC00506783","1969-12-02",39.92,32.00,0.00,,
"USC00506783","1969-12-03",37.94,33.98,0.00,,
"USC00506783","1969-12-04",42.08,33.98,0.00,,
"USC00506783","1969-12-05",44.06,33.98,356.00,,
"USC00506783","1969-12-06",46.04,35.96,25.00,,
"USC00506783","1969-12-07",44.06,33.98,0.00,,
"USC00506783","1969-12-08",46.04,33.98,20.00,,
"USC00506783","1969-12-09",44.06,32.00,53.00,,
"USC00506783","1969-12-10",46.04,33.98,0.00,,
"USC00506783","1969-12-11",42.08,32.00,0.00,,
"USC00506783","1969-12-12",42.08,32.00,0.00,,
"USC00506783","1969-12-13",39.92,33.98,0.00,,
"USC00506783","1969-12-14",37.94,30.02,0.00,,
"USC00506783","1969-12-15",35.96,28.04,0.00,,
"USC00506783","1969-12-16",37.94,32.00,0.00,,
"USC00506783","1969-12-17",42.08,33.98,122.00,,
"USC00506783","1969-12-18",44.06,35.96,79.00,,
"USC00506783","1969-12-19",44.06,33.98,300.00,,
"USC00506783","1969-12-20",42.08,35.96,279.00,,
"USC00506783","1969-12-21",44.06,33.98,305.00,,
"USC00506783","1969-12-22",42.08,33.98,264.00,,
"USC00506783","1969-12-23",46.04,35.96,0.00,,
"USC00506783","1969-12-24",39.92,30.02,0.00,,
"USC00506783","1969-12-25",37.94,30.02,0.00,,
"USC00506783","1969-12-26",42.08,32.00,0.00,,
"USC00506783","1969-12-27",44.06,33.98,0.00,,
"USC00506783","1969-12-28",44.06,35.96,277.00,,